Regional Weather Roundup
Issued by NWS

Home | Current Version | Previous Version | Text Only | Print | Product List | Glossary On
Versions: 1 2 3 4 5 6 7 8 9 10 11 12 13 14 15 16 17 18 19 20 21 22 23 24 25 26 27 28 29 30 31 32 33 34 35 36 37 38 39 40 41 42 43 44 45 46 47 48 49 50
000
ASUS43 KDTX 272210
RWRMI
MICHIGAN HOURLY REGIONAL WEATHER ROUNDUP
NATIONAL WEATHER SERVICE DETROIT/PONTIAC MI
600 PM EDT THU JUL 27 2017

NOTE: "FAIR" INDICATES FEW OR NO CLOUDS BELOW 12,000 FEET WITH NO
SIGNIFICANT WEATHER AND/OR OBSTRUCTION TO VISIBILITY.

MIZ047>049-052>055-059>063-066>070-074>076-081>083-272300-
SOUTHEAST LOWER MICHIGAN

CITY           SKY/WX    TMP DP  RH WIND       PRES   REMARKS
ADRIAN         PTSUNNY   87  62  43 NE10      29.88F
ALMA           FAIR      80  60  50 E7        29.94F
ANN ARBOR      PTSUNNY   84  64  50 N9        29.88F
BAD AXE        FAIR      73  60  63 NE8       29.97S
CARO           FAIR      78  60  54 N5        29.94F
DETROIT CITY   PTSUNNY   80  67  64 E14G20    29.90R
DETROIT        PTSUNNY   85  64  49 NE8       29.89S
FLINT          CLOUDY    76  65  68 NE12      29.94R
GROSSE ILE     FAIR      80  66  62 S6        29.88S
HILLSDALE      CLOUDY    84  61  45 NE9       29.89S
HOWELL         FAIR      78  67  68 N6        29.92S

CITY           SKY/WX    TMP DP  RH WIND       PRES   REMARKS
JACKSON        FAIR      84  63  49 NE10      29.90S
LAMBERTVILLE   FAIR      81  64  57 E6        29.88S
LANSING        PTSUNNY   79  65  62 NE13      29.93S
LAPEER         CLOUDY    75  63  65 NE5       29.95S
MASON          CLOUDY    78  68  71 N13       29.92S
MONROE         FAIR      82  66  57 SE6       29.88S
MT. CLEMENS    PTSUNNY   77  69  77 N12       29.91R
PONTIAC        PTSUNNY   78  68  71 NE16      29.91S
PORT HOPE        N/A     69  63  81 N9        29.96S
PORT HURON     CLOUDY    73  66  78 N6        29.94S
TRI CITIES     FAIR      78  65  63 NE15      29.95S
MIDLAND        FAIR      78  64  63 E13       29.95S
TROY           PTSUNNY   82  68  63 N14       29.92S
SAGINAW HB     FAIR      77  64  65 NE10      29.94S
$$
MIZ043>046-050>051-056>058-064>065-071>073-077>080-272300-
SOUTHWEST LOWER MICHIGAN

CITY           SKY/WX    TMP DP  RH WIND       PRES   REMARKS
BATTLE CREEK   FAIR      82  68  62 N14       29.91S
BENTON HARBOR  FAIR      77  66  68 N7        29.91S
BIG RAPIDS     FAIR      81  55  41 NE7       29.94S
COLDWATER      FAIR      84  62  47 NE8       29.89S
FREMONT        FAIR      83  55  38 NE6       29.93S
HOLLAND        FAIR      86  63  45 NE8       29.91F
GRAND RAPIDS   PTSUNNY   84  66  54 NE16      29.92F
IONIA          FAIR      80  58  47 NE12G18   29.92F
KALAMAZOO      FAIR      82  66  58 N8        29.90S
LUDINGTON      CLOUDY    76  64  65 N10       29.95F
MARSHALL       FAIR      84  68  58 N7        29.89F
MOUNT PLEASANT FAIR      82  59  45 E3        29.93S
MUSKEGON       PTSUNNY   87  58  37 NE9G16    29.92S
SOUTH HAVEN    FAIR      78  68  69 N10G16    29.91S
$$
MIZ016>042-272300-
NORTHERN LOWER MICHIGAN

CITY           SKY/WX    TMP DP  RH WIND       PRES   REMARKS
ALPENA         FAIR      77  60  55 N7        29.98F
BEAVER ISLAND  FAIR      74  55  51 N7G16     30.02S
BELLAIRE       FAIR      77  58  51 N7        29.98S
CADILLAC       FAIR      80  59  48 N3        29.98S
CHARLEVOIX     FAIR      74  58  57 N8        30.03R
FRANKFORT      FAIR      77  57  50 N8        30.00S
GAYLORD        FAIR      77  55  46 N7        30.00S
GRAYLING       FAIR      76  56  48 N9        29.99S
HARBOR SPRINGS FAIR      78  54  43 NW9       29.99S
HOUGHTON LAKE  FAIR      80  55  42 NE10      29.97S
MANISTEE       FAIR      78  61  55 NW10      29.97S
OSCODA         FAIR      73  58  59 NE13      29.96F
PELLSTON       FAIR      79  57  46 W9        29.99F
ROGERS CITY    FAIR      73  58  60 N6        30.00S
TRAVERSE CITY  FAIR      77  57  50 N14G21    29.98R
$$
MIZ007>008-015-272300-
EASTERN UPPER MICHIGAN

CITY           SKY/WX    TMP DP  RH WIND       PRES   REMARKS
KINROSS        FAIR      69  53  56 NW12      30.01S
MACKINAC ISLAN FAIR      74  55  50 N12       29.99S
NEWBERRY       FAIR      68  54  59 N9G16     30.04R
S. S. MARIE    FAIR      72  55  55 NW12      29.99F
MUNISING         N/A     65  59  81 NW13      30.06F
$$
MIZ004>006-011>014-085-272300-
CENTRAL UPPER MICHIGAN

CITY           SKY/WX    TMP DP  RH WIND       PRES   REMARKS
MANISTIQUE     FAIR      73  52  46 N12G21    30.03R
MENOMINEE      FAIR      76  60  57 E12       30.02F
SAWYER-GWINN   SUNNY     70  52  52 N14G20    30.09S
$$
MIZ001>003-009>011-084-272300-
WESTERN UPPER MICHIGAN

CITY           SKY/WX    TMP DP  RH WIND       PRES   REMARKS
HOUGHTON       FAIR      73  54  51 SE5       30.09S
COPPER HARBOR    N/A     67  55  65 CALM      30.07F
IRONWOOD       FAIR      74  59  59 N9        30.08F
$$

ABBREVIATIONS USED IN REMARKS
   TC - TEMPERATURE IN CELSIUS
  WCI - WIND CHILL INDEX
   HX - HEAT INDEX
  VSB - VISIBILITY





USA.gov is the U.S. government's official web portal to all federal, state and local government web resources and services.